[[{"header":{"parameterUnit":"m.s-1","parameterCategory":1,"la1":30.2991,"la2":30.254,"lo1":-89.0895,"lo2":-89.0444,"dy":0.0017,"dx":0.0017,"nx":28,"ny":28,"refTime":"2024-12-26T09:00:00:Z","depth":0,"parameterNumber":2,"parameterNumberName":"U-component_of_WINDS"},"data":[0,0,0,0,0,0,0,0,0,0,0,0,0,0,0,0,0,0,0,0,0,0,0,0,0,0,0,0,0,0,0,0,0,0,0,0,0,0,0,0,0,0,0,0,0,0,0,0,0,0,0,0,0,0,0,0,0,0,-1.5394,-1.5394,0,-1.5415,-1.5415,-1.5415,-1.5426,-1.5426,-1.5426,-1.5426,-1.5447,-1.5448,-1.5448,0,0,0,0,0,0,0,0,0,0,0,0,0,-1.5364,-1.5365,-1.5394,-1.5394,-1.5395,-1.5415,-1.5415,-1.5415,-1.5426,-1.5426,-1.5426,-1.5426,-1.5447,-1.5448,-1.5448,0,0,0,0,0,0,0,0,0,0,0,0,0,-1.538,-1.5365,-1.5394,-1.5403,-1.5404,-1.5415,-1.5415,-1.5415,-1.5426,-1.5426,-1.5426,-1.5426,-1.5447,-1.5447,-1.5448,-1.5453,0,0,-1.5451,-1.5451,0,0,0,0,0,0,0,0,-1.538,-1.5382,-1.5401,-1.5402,-1.5403,-1.5418,-1.5412,-1.5428,-1.5426,-1.5418,-1.5426,-1.5426,-1.5437,-1.5439,-1.5443,-1.5454,-1.5454,-1.5451,-1.5451,-1.5452,-1.5452,0,0,0,0,0,0,0,-1.5378,-1.5381,-1.5402,-1.5401,-1.5403,-1.5405,-1.5408,-1.5415,-1.5427,-1.5418,-1.5419,-1.5421,-1.5438,-1.5442,-1.5443,-1.5455,-1.5451,-1.5452,-1.5452,-1.5452,-1.5471,-1.5471,0,0,0,0,0,0,-1.5376,-1.538,-1.5402,-1.5403,-1.5391,-1.5406,-1.5408,-1.5413,-1.5427,-1.5429,-1.5421,-1.5422,-1.5441,-1.5442,-1.5444,-1.545,-1.5452,-1.5452,-1.5453,-1.5471,-1.5471,-1.5471,0,0,0,0,0,0,-1.5375,-1.5378,-1.5401,-1.5392,-1.5395,-1.5406,-1.5412,-1.5414,-1.5418,-1.5429,-1.5431,-1.5423,-1.5441,-1.5443,-1.5451,-1.5451,-1.5453,-1.5453,-1.5471,-1.5471,-1.5471,-1.5463,0,0,0,0,0,0,-1.5374,-1.5377,-1.5379,-1.5392,-1.5395,-1.5407,-1.5412,-1.5414,-1.5419,-1.542,-1.5432,-1.5434,-1.5441,-1.5449,-1.5451,-1.5452,-1.5454,-1.5471,-1.5471,-1.5471,-1.5463,-1.5462,-1.5462,0,0,0,0,0,-1.5373,-1.5376,-1.5379,-1.5382,-1.5397,-1.5407,-1.5409,-1.5417,-1.5419,-1.5421,-1.5429,-1.5433,-1.5451,-1.545,-1.5452,-1.5454,-1.5471,-1.5471,-1.5471,-1.5463,-1.5462,-1.5462,0,0,0,0,0,0,-1.5363,-1.5378,-1.5381,-1.5388,-1.5396,-1.5409,-1.5411,-1.5416,-1.5424,-1.5424,-1.5434,-1.5437,-1.5444,-1.5449,-1.5448,-1.5459,-1.5461,-1.5462,-1.5455,-1.5454,-1.5454,-1.5452,-1.5455,0,0,0,0,0,-1.5361,-1.5368,-1.538,-1.5385,-1.5389,-1.5399,-1.5404,-1.541,-1.5418,-1.5422,-1.543,-1.5438,-1.5446,-1.545,-1.5458,-1.5464,-1.5467,-1.5466,-1.5466,-1.5465,-1.5465,-1.5469,-1.5469,-1.5471,-1.5471,-1.5471,0,0,-1.5358,-1.5367,-1.5371,-1.5383,-1.539,-1.5397,-1.5402,-1.5409,-1.5414,-1.5423,-1.543,-1.5437,-1.5447,-1.5454,-1.5457,-1.5459,-1.5466,-1.5465,-1.5465,-1.5465,-1.5469,-1.5469,-1.5469,-1.5471,-1.5471,-1.5471,0,0,-1.5356,-1.5363,-1.5368,-1.5375,-1.5386,-1.5393,-1.5394,-1.5406,-1.5411,-1.5419,-1.5426,-1.5432,-1.5444,-1.5451,-1.5456,-1.5458,-1.5463,-1.546,-1.5457,-1.5461,-1.5461,-1.5461,-1.5461,-1.5462,-1.546,-1.546,-1.546,0,-1.5351,-1.5361,-1.537,-1.5376,-1.5382,-1.5391,-1.5396,-1.5402,-1.5415,-1.5418,-1.542,-1.5436,-1.5443,-1.5452,-1.5453,-1.5457,-1.5458,-1.5458,-1.546,-1.546,-1.546,-1.5461,-1.5461,-1.546,-1.546,-1.546,-1.546,0,-1.5354,-1.5361,-1.5364,-1.5376,-1.5382,-1.5387,-1.5397,-1.5402,-1.5408,-1.5415,-1.5423,-1.5432,-1.5442,-1.5444,-1.545,-1.5454,-1.5455,-1.5458,-1.5461,-1.546,-1.546,-1.5461,-1.5459,-1.5459,-1.5459,-1.546,0,0,-1.5345,-1.5363,-1.5364,-1.5369,-1.5382,-1.5388,-1.5394,-1.5404,-1.5408,-1.5416,-1.5422,-1.5432,-1.5436,-1.5442,-1.5448,-1.5451,-1.5452,-1.5454,-1.5455,-1.5454,-1.5458,-1.5455,-1.5456,-1.5456,-1.5456,-1.5456,-1.5457,0,-1.5345,-1.5356,-1.5365,-1.5373,-1.538,-1.5389,-1.5394,-1.5403,-1.541,-1.5416,-1.5424,-1.5432,-1.5435,-1.5439,-1.5443,-1.5451,-1.5453,-1.5451,-1.5461,-1.5461,-1.5458,-1.5456,-1.5453,-1.5454,-1.5458,-1.5458,-1.5458,0,-1.5345,-1.5354,-1.5363,-1.5375,-1.5378,-1.5383,-1.5393,-1.5399,-1.5409,-1.5414,-1.5421,-1.5428,-1.5435,-1.5437,-1.5448,-1.5446,-1.5451,-1.5456,-1.5456,-1.5457,-1.5459,-1.5457,-1.5454,-1.5454,-1.5458,-1.5458,-1.5458,0,-1.5338,-1.5352,-1.5359,-1.5364,-1.5378,-1.5381,-1.5388,-1.5398,-1.5403,-1.5412,-1.5416,-1.5425,-1.543,-1.5438,-1.5447,-1.5448,-1.5456,-1.5459,-1.546,-1.546,-1.5462,-1.5461,-1.546,-1.5465,-1.5465,-1.5465,-1.5465,0,-1.5336,-1.5341,-1.5356,-1.536,-1.5366,-1.5377,-1.5382,-1.539,-1.5399,-1.5405,-1.5413,-1.5419,-1.5431,-1.5438,-1.5445,-1.5453,-1.5455,-1.5459,-1.5461,-1.5458,-1.5458,-1.5461,-1.5461,-1.5465,-1.5465,-1.5465,-1.5465,0,-1.5329,-1.5339,-1.5347,-1.5361,-1.5364,-1.5368,-1.538,-1.5384,-1.5392,-1.54,-1.5402,-1.5414,-1.5423,-1.5433,-1.5445,-1.545,-1.5457,-1.546,-1.5454,-1.5455,-1.5456,-1.5455,-1.5456,-1.5457,-1.5461,-1.5461,-1.5461,0,-1.5327,-1.5331,-1.5345,-1.535,-1.5356,-1.5363,-1.5369,-1.538,-1.5385,-1.5398,-1.5401,-1.5411,-1.5419,-1.5433,-1.5443,-1.5452,-1.5455,-1.5455,-1.5457,-1.5454,-1.5455,-1.5455,-1.5455,-1.5454,-1.5454,-1.5454,-1.5454,0,-1.5322,-1.5327,-1.5335,-1.5345,-1.5352,-1.536,-1.5368,-1.5372,-1.5384,-1.539,-1.54,-1.5406,-1.5419,-1.5428,-1.5439,-1.5446,-1.5452,-1.5453,-1.5454,-1.5451,-1.5448,-1.545,-1.5452,-1.5453,-1.5453,-1.5453,-1.5453,-1.5453,-1.5318,-1.5322,-1.5333,-1.5341,-1.5349,-1.5357,-1.5362,-1.5371,-1.5379,-1.539,-1.5396,-1.5405,-1.5416,-1.5431,-1.5438,-1.5446,-1.5447,-1.5449,-1.5449,-1.5449,-1.5448,-1.5447,-1.5448,-1.5448,-1.5448,-1.5448,-1.5448,0,-1.5314,-1.5321,-1.5329,-1.5341,-1.5348,-1.5353,-1.5363,-1.5369,-1.5377,-1.5386,-1.5394,-1.5406,-1.5415,-1.5426,-1.5436,-1.544,-1.5443,-1.5443,-1.5442,-1.5444,-1.5446,-1.5444,-1.544,-1.544,-1.544,-1.544,-1.544,-1.544,-1.5312,-1.532,-1.5326,-1.5338,-1.5345,-1.5355,-1.536,-1.5367,-1.5375,-1.5387,-1.5395,-1.5402,-1.5413,-1.5424,-1.5433,-1.5436,-1.5439,-1.5438,-1.5442,-1.5443,-1.5444,-1.5444,-1.5443,-1.5439,-1.5439,-1.5439,-1.5439,-1.5439]},{"header":{"parameterUnit":"m.s-1","parameterCategory":1,"la1":30.2991,"la2":30.254,"lo1":-89.0895,"lo2":-89.0444,"dy":0.0017,"dx":0.0017,"nx":28,"ny":28,"refTime":"2024-12-26T09:00:00:Z","depth":0,"parameterNumber":3,"parameterNumberName":"V-component_of_WINDS"},"data":[0,0,0,0,0,0,0,0,0,0,0,0,0,0,0,0,0,0,0,0,0,0,0,0,0,0,0,0,0,0,0,0,0,0,0,0,0,0,0,0,0,0,0,0,0,0,0,0,0,0,0,0,0,0,0,0,0,0,3.3724,3.3724,0,3.3786,3.3787,3.3788,3.3786,3.3786,3.3785,3.3784,3.3844,3.3846,3.3849,0,0,0,0,0,0,0,0,0,0,0,0,0,3.3599,3.3602,3.3723,3.3724,3.3725,3.3786,3.3787,3.3788,3.3786,3.3785,3.3784,3.3784,3.3843,3.3846,3.3849,0,0,0,0,0,0,0,0,0,0,0,0,0,3.3657,3.3602,3.3723,3.3732,3.3733,3.3786,3.3787,3.3788,3.3787,3.3785,3.3784,3.3783,3.3842,3.3846,3.3849,3.3896,0,0,3.386,3.3862,0,0,0,0,0,0,0,0,3.3653,3.3661,3.373,3.3731,3.3733,3.3777,3.3765,3.3824,3.3787,3.3766,3.3784,3.3782,3.3823,3.3828,3.3842,3.3899,3.3902,3.386,3.3863,3.3864,3.3865,0,0,0,0,0,0,0,3.3649,3.3658,3.3748,3.3731,3.3733,3.3731,3.3738,3.3776,3.38,3.3768,3.3768,3.3776,3.3823,3.3839,3.3843,3.3903,3.386,3.3864,3.3866,3.3867,3.4003,3.4004,0,0,0,0,0,0,3.3644,3.3655,3.3746,3.375,3.369,3.3735,3.3742,3.3764,3.38,3.3804,3.3777,3.3775,3.3833,3.3839,3.3845,3.3905,3.3864,3.3867,3.387,3.4001,3.4003,3.4005,0,0,0,0,0,0,3.3642,3.3652,3.3744,3.3703,3.3714,3.3738,3.3763,3.3766,3.3782,3.3807,3.3811,3.3788,3.3832,3.384,3.3884,3.3906,3.3869,3.3872,3.4,3.4002,3.4004,3.4022,0,0,0,0,0,0,3.3638,3.3651,3.367,3.3703,3.3717,3.3782,3.3764,3.3768,3.3788,3.3787,3.3819,3.3823,3.3832,3.3879,3.3888,3.3911,3.3875,3.3998,3.4001,3.4003,3.4019,3.4024,3.4029,0,0,0,0,0,3.3634,3.3671,3.3671,3.3682,3.3741,3.3784,3.3791,3.3802,3.379,3.3809,3.3825,3.3822,3.3902,3.3884,3.3893,3.3918,3.3996,3.4,3.4003,3.4017,3.4023,3.4028,0,0,0,0,0,0,3.3639,3.3676,3.3676,3.3726,3.3752,3.3783,3.3808,3.3808,3.3837,3.3835,3.3846,3.3853,3.3897,3.3911,3.389,3.3966,3.3948,3.3953,3.3955,3.3961,3.3966,3.3962,3.3878,0,0,0,0,0,3.3646,3.3679,3.3709,3.375,3.3763,3.3783,3.3802,3.3809,3.3836,3.3846,3.3865,3.3891,3.3922,3.3942,3.3972,3.4021,3.4028,3.4043,3.4047,3.4051,3.4056,3.4084,3.4091,3.4016,3.4016,3.4016,0,0,3.3661,3.3685,3.3705,3.3752,3.3773,3.3806,3.3792,3.3828,3.3853,3.3851,3.3895,3.391,3.3938,3.3986,3.4007,3.3999,3.4078,3.4055,3.4058,3.4061,3.4088,3.4096,3.4102,3.4018,3.4017,3.4017,0,0,3.3705,3.3726,3.3764,3.3786,3.3818,3.3831,3.384,3.3872,3.3883,3.3927,3.3927,3.3956,3.4009,3.403,3.4047,3.4101,3.4099,3.411,3.4135,3.4162,3.4168,3.4174,3.4194,3.4201,3.4115,3.4115,3.4115,0,3.3719,3.3771,3.3783,3.382,3.384,3.3842,3.388,3.39,3.394,3.3954,3.3944,3.4012,3.4031,3.4084,3.4097,3.4111,3.4122,3.4107,3.4167,3.4172,3.4177,3.4197,3.4205,3.4116,3.4116,3.4116,3.4116,0,3.3787,3.3822,3.3849,3.389,3.3913,3.395,3.3967,3.3989,3.3994,3.4008,3.4053,3.4076,3.4112,3.4124,3.4128,3.4178,3.4172,3.4164,3.4147,3.4186,3.4204,3.4212,3.4118,3.4117,3.4117,3.4117,0,0,3.3836,3.3885,3.3894,3.3914,3.395,3.3977,3.4014,3.405,3.407,3.4097,3.4128,3.4174,3.4167,3.4187,3.4193,3.4217,3.426,3.4207,3.4208,3.4217,3.4319,3.4326,3.4334,3.4259,3.426,3.4262,3.4317,0,3.3886,3.3954,3.3966,3.4025,3.4058,3.4061,3.4093,3.4118,3.4132,3.4162,3.4176,3.4209,3.4197,3.421,3.4234,3.425,3.4281,3.4246,3.4289,3.429,3.4283,3.4344,3.4351,3.4402,3.4324,3.4325,3.4326,0,3.3953,3.3985,3.4047,3.4081,3.4095,3.4124,3.4159,3.4187,3.4216,3.4224,3.4247,3.4251,3.4289,3.4269,3.4322,3.4298,3.4315,3.4326,3.4328,3.4334,3.4311,3.4352,3.4418,3.4426,3.4337,3.4336,3.4336,0,3.3985,3.4043,3.4088,3.4104,3.4144,3.4164,3.4181,3.4209,3.423,3.426,3.4274,3.4307,3.4326,3.4351,3.4364,3.4348,3.4416,3.4397,3.4424,3.4424,3.444,3.4439,3.4511,3.4449,3.4449,3.4448,3.4448,0,3.404,3.4079,3.4104,3.4132,3.4175,3.4188,3.423,3.4246,3.4271,3.4302,3.4305,3.4333,3.4347,3.4378,3.4387,3.443,3.4438,3.4446,3.4448,3.4447,3.4446,3.446,3.4457,3.445,3.445,3.445,3.4449,0,3.4084,3.4102,3.4152,3.4186,3.4195,3.4226,3.4254,3.4281,3.4295,3.4334,3.4344,3.4366,3.4402,3.4417,3.446,3.4467,3.4517,3.4516,3.4508,3.4509,3.4537,3.4534,3.4621,3.4634,3.4562,3.4562,3.4563,0,3.4119,3.4149,3.4187,3.4209,3.4227,3.4261,3.4284,3.4298,3.4321,3.4357,3.4379,3.4416,3.4446,3.4504,3.4523,3.4556,3.4557,3.4585,3.4562,3.456,3.4559,3.4558,3.4562,3.459,3.459,3.4591,3.4591,0,3.4179,3.4187,3.422,3.4257,3.4285,3.4314,3.4342,3.4359,3.4377,3.4403,3.4441,3.4464,3.451,3.4547,3.4582,3.4598,3.4598,3.4598,3.4607,3.4606,3.4601,3.4606,3.4521,3.4597,3.4596,3.4596,3.4595,3.4595,3.4221,3.4248,3.428,3.4317,3.434,3.4367,3.4395,3.4413,3.4445,3.4485,3.449,3.4531,3.4559,3.4607,3.4625,3.4657,3.4649,3.4661,3.4665,3.4668,3.4671,3.4595,3.4663,3.4663,3.4662,3.4662,3.4662,0,3.4283,3.4304,3.4338,3.4378,3.4408,3.4406,3.4437,3.4462,3.4498,3.4525,3.4556,3.46,3.4635,3.4657,3.4693,3.4714,3.4715,3.4723,3.4723,3.4727,3.4674,3.4664,3.4722,3.4722,3.4722,3.4722,3.4722,3.4722,3.4319,3.4366,3.4378,3.4436,3.4456,3.4497,3.4516,3.454,3.4562,3.4612,3.4642,3.4657,3.4682,3.472,3.4753,3.4758,3.4772,3.4781,3.4786,3.4736,3.473,3.4724,3.4715,3.4783,3.4783,3.4836,3.4837,3.4837]}]]